Port Clinton Carl R Keller Fi, OH

12:15 PM EDT on March 24, 2017 (GMT -0400)
Keller

Weather History for KPCW - October, 2013

Change the Weather History Date:

Thursday, October 17, 2013

  Actual Average (KTTF) Record (KTTF)
Temperature  
Mean Temperature 50 °F -  
Max Temperature 55 °F 60 °F 89 °F (1938)
Min Temperature 46 °F 41 °F 25 °F (1977)
Degree Days  
Heating Degree Days 14    
Moisture  
Dew Point 47 °F    
Average Humidity 86    
Maximum Humidity 94    
Minimum Humidity 77    
Precipitation  
Precipitation 0.00 in - - ()
Sea Level Pressure  
Sea Level Pressure 29.86 in    
Wind  
Wind Speed 7 mph ()    
Max Wind Speed 16 mph    
Max Gust Speed -    
Visibility 9.5 miles    
Events Rain    
Averages and records for this station are not official NWS values.
T = Trace of Precipitation, MM = Missing Value Source: Averaged Metar Reports

Daily Weather History Graph

Daily Weather History Graph

Search for Another Location

Airport or City:

Trip Planner

Search our weather history database for the weather conditions in past years. The results will help you decide how hot, cold, wet, or windy it might be!

Date:

Astronomy

Oct. 17, 2013 Rise Set
Actual Time 7:45 AM EDT 6:46 PM EDT
Civil Twilight 7:17 AM EDT 7:14 PM EDT
Nautical Twilight 6:45 AM EDT 7:47 PM EDT
Astronomical Twilight 6:13 AM EDT 8:19 PM EDT
Moon 6:00 PM EDT (10/17) 6:16 AM EDT (10/17)
Length of Visible Light 11h 56m
Length of Day
11h 00m
Waxing Gibbous, 98% of the Moon is Illuminated
Oct 17
Waxing Gibbous
Oct 18
Full
Oct 26
Last Quarter
Nov 3
New
Nov 10
First Quarter

Hourly Weather History & Observations

Time (EDT) Temp. Windchill Dew Point Humidity Pressure Visibility Wind Dir Wind Speed Gust Speed Precip Events Conditions
12:13 AM 50.0 °F - 46.4 °F 87% 29.92 in 10.0 mi West 6.9 mph - N/A   Clear
12:34 AM 50.0 °F - 46.4 °F 87% 29.92 in 10.0 mi West 6.9 mph - N/A   Clear
12:53 AM 48.9 °F - 45.0 °F 86% 29.92 in 10.0 mi West 6.9 mph - N/A   Clear
1:13 AM 48.2 °F - 44.6 °F 87% 29.92 in 10.0 mi West 8.1 mph - N/A   Clear
1:33 AM 48.2 °F - 46.4 °F 93% 29.92 in 10.0 mi West 5.8 mph - N/A   Clear
1:53 AM 48.9 °F - 45.0 °F 86% 29.92 in 10.0 mi West 5.8 mph - N/A   Clear
2:13 AM 48.2 °F - 44.6 °F 87% 29.92 in 10.0 mi WSW 4.6 mph - N/A   Clear
2:33 AM 48.2 °F - 44.6 °F 87% 29.92 in 10.0 mi WSW 4.6 mph - N/A   Clear
2:53 AM 48.9 °F - 45.0 °F 86% 29.92 in 10.0 mi WSW 6.9 mph - N/A   Clear
3:13 AM 48.2 °F - 46.4 °F 93% 29.92 in 10.0 mi SW 5.8 mph - N/A   Clear
3:33 AM 48.2 °F - 44.6 °F 87% 29.91 in 10.0 mi SW 6.9 mph - N/A   Scattered Clouds
3:53 AM 47.8 °F - 45.0 °F 90% 29.91 in 10.0 mi SW 4.6 mph - N/A   Overcast
4:13 AM 48.2 °F - 44.6 °F 87% 29.91 in 10.0 mi WSW 6.9 mph - N/A   Overcast
4:33 AM 48.2 °F - 44.6 °F 87% 29.90 in 10.0 mi WSW 6.9 mph - N/A   Partly Cloudy
4:53 AM 46.9 °F - 45.0 °F 93% 29.90 in 10.0 mi SW 5.8 mph - N/A   Clear
5:13 AM 46.4 °F 42.9 °F 44.6 °F 93% 29.90 in 10.0 mi SW 6.9 mph - N/A   Clear
5:33 AM 48.2 °F - 44.6 °F 87% 29.90 in 10.0 mi WSW 6.9 mph - N/A   Clear
5:53 AM 46.9 °F - 45.0 °F 93% 29.89 in 10.0 mi WSW 4.6 mph - N/A   Clear
6:13 AM 46.4 °F 45.2 °F 44.6 °F 93% 29.89 in 10.0 mi West 3.5 mph - N/A   Clear
6:33 AM 46.4 °F 45.2 °F 44.6 °F 93% 29.89 in 10.0 mi WSW 3.5 mph - N/A   Clear
6:53 AM 46.9 °F - 45.0 °F 93% 29.89 in 10.0 mi WSW 3.5 mph - N/A   Clear
7:13 AM 46.4 °F 44.3 °F 44.6 °F 93% 29.90 in 10.0 mi WSW 4.6 mph - N/A   Clear
7:33 AM 46.4 °F 44.3 °F 44.6 °F 93% 29.90 in 10.0 mi WSW 4.6 mph - N/A   Clear
7:53 AM 46.9 °F - 45.0 °F 93% 29.90 in 10.0 mi WSW 4.6 mph - N/A   Clear
8:11 AM 48.2 °F - 44.6 °F 87% 29.89 in 4.0 mi WSW 4.6 mph - N/A   Clear
8:33 AM 48.2 °F - 46.4 °F 93% 29.89 in 10.0 mi SW 3.5 mph - N/A   Clear
8:53 AM 50.0 °F - 46.9 °F 89% 29.89 in 10.0 mi WSW 6.9 mph - N/A   Clear
9:13 AM 51.8 °F - 46.4 °F 82% 29.89 in 10.0 mi WSW 8.1 mph - N/A   Clear
9:33 AM 50.0 °F - 46.4 °F 87% 29.89 in 10.0 mi WSW 5.8 mph - N/A   Clear
9:53 AM 50.0 °F - 46.9 °F 89% 29.90 in 10.0 mi WSW 6.9 mph - N/A   Clear
10:14 AM 51.8 °F - 46.4 °F 82% 29.89 in 4.0 mi WSW 6.9 mph - N/A   Clear
10:33 AM 51.8 °F - 48.2 °F 88% 29.89 in 10.0 mi WSW 6.9 mph - N/A   Clear
10:53 AM 52.9 °F - 47.8 °F 83% 29.89 in 10.0 mi SW 6.9 mph - N/A   Clear
11:13 AM 53.6 °F - 48.2 °F 82% 29.88 in 9.0 mi WSW 8.1 mph - N/A   Clear
11:33 AM 55.4 °F - 48.2 °F 77% 29.87 in 9.0 mi West 8.1 mph - N/A   Clear
11:53 AM 54.9 °F - 48.9 °F 80% 29.86 in 10.0 mi WSW 5.8 mph - N/A   Clear
12:13 PM 55.4 °F - 48.2 °F 77% 29.85 in 10.0 mi WSW 5.8 mph - N/A   Partly Cloudy
12:33 PM 55.4 °F - 48.2 °F 77% 29.86 in 10.0 mi West 9.2 mph - N/A   Partly Cloudy
12:53 PM 54.9 °F - 47.8 °F 77% 29.85 in 5.0 mi West 9.2 mph - N/A   Haze
1:13 PM 55.4 °F - 48.2 °F 77% 29.85 in 10.0 mi WSW 9.2 mph - N/A   Partly Cloudy
1:33 PM 53.6 °F - 48.2 °F 82% 29.84 in 9.0 mi SW 8.1 mph - N/A Rain Light Rain
1:51 PM 53.6 °F - 48.2 °F 82% 29.82 in 3.0 mi SW 5.8 mph - N/A Rain Rain
2:13 PM 53.6 °F - 51.8 °F 94% 29.81 in 10.0 mi WSW 5.8 mph - N/A Rain Light Rain
2:33 PM 53.6 °F - 50.0 °F 88% 29.81 in 8.0 mi SW 6.9 mph - N/A Rain Light Rain
2:53 PM 53.6 °F - 50.0 °F 88% 29.80 in 6.0 mi SW 6.9 mph - N/A Rain Light Rain
3:14 PM 51.8 °F - 48.2 °F 88% 29.81 in 10.0 mi SW 9.2 mph - N/A   Overcast
3:33 PM 53.6 °F - 50.0 °F 88% 29.80 in 8.0 mi WSW 9.2 mph - N/A Rain Light Rain
3:53 PM 51.8 °F - 48.2 °F 88% 29.80 in 10.0 mi West 10.4 mph - N/A   Overcast
4:13 PM 53.6 °F - 48.2 °F 82% 29.80 in 10.0 mi WSW 11.5 mph - N/A   Overcast
4:33 PM 53.6 °F - 48.2 °F 82% 29.79 in 10.0 mi West 15.0 mph - N/A   Overcast
4:53 PM 53.6 °F - 48.2 °F 82% 29.79 in 10.0 mi West 10.4 mph - N/A   Overcast
5:13 PM 53.6 °F - 48.2 °F 82% 29.80 in 10.0 mi West 11.5 mph - N/A   Overcast
5:33 PM 53.6 °F - 48.2 °F 82% 29.80 in 10.0 mi WSW 10.4 mph - N/A   Mostly Cloudy
5:42 PM 53.6 °F - 48.2 °F 82% 29.80 in 10.0 mi West 9.2 mph - N/A   Mostly Cloudy
6:04 PM 53.6 °F - 48.2 °F 82% 29.80 in 10.0 mi WSW 12.7 mph - N/A   Overcast
6:33 PM 51.8 °F - 48.2 °F 88% 29.80 in 10.0 mi WSW 11.5 mph - N/A   Mostly Cloudy
6:53 PM 52.0 °F - 47.8 °F 86% 29.80 in 10.0 mi WSW 11.5 mph - N/A   Overcast
7:13 PM 51.8 °F - 48.2 °F 88% 29.81 in 10.0 mi WSW 9.2 mph - N/A   Mostly Cloudy
7:33 PM 51.8 °F - 48.2 °F 88% 29.81 in 10.0 mi WSW 10.4 mph - N/A Rain Light Rain
7:54 PM 53.6 °F - 48.2 °F 82% 29.82 in 10.0 mi WSW 15.0 mph - N/A Rain Light Rain
8:13 PM 53.6 °F - 48.2 °F 82% 29.82 in 10.0 mi WSW 15.0 mph - N/A Rain Light Rain
8:34 PM 51.8 °F - 46.4 °F 82% 29.83 in 10.0 mi WSW 13.8 mph - N/A Rain Light Rain
8:53 PM 50.9 °F - 46.9 °F 86% 29.83 in 10.0 mi WSW 15.0 mph - N/A Rain Light Rain
9:13 PM 51.8 °F - 46.4 °F 82% 29.84 in 10.0 mi West 15.0 mph - N/A Rain Light Rain
9:34 PM 51.8 °F - 46.4 °F 82% 29.84 in 10.0 mi West 13.8 mph - N/A   Overcast
9:53 PM 52.0 °F - 47.8 °F 86% 29.85 in 10.0 mi WSW 15.0 mph - N/A Rain Light Rain
10:13 PM 51.8 °F - 46.4 °F 82% 29.85 in 10.0 mi West 15.0 mph - N/A Rain Light Rain
10:34 PM 51.8 °F - 46.4 °F 82% 29.86 in 10.0 mi West 16.1 mph - N/A   Mostly Cloudy
10:53 PM 51.8 °F - 46.4 °F 82% 29.87 in 10.0 mi West 15.0 mph - N/A Rain Light Rain
11:13 PM 51.8 °F - 46.4 °F 82% 29.87 in 10.0 mi West 11.5 mph - N/A Rain Light Rain
11:14 PM 51.8 °F - 46.4 °F 82% 29.87 in 10.0 mi West 12.7 mph - N/A Rain Light Rain